Вернуться в каталог

STARLINK-31448

АктивенСвязьVLEO
NORAD 59611·PAYLOAD·🇺🇸 United States

Запущен Apr 28, 2024 с Cape Canaveral Space Force Station

Loading…

Ближайшие Пролёты (ближайшие 24 часа)

TLE

СвежийSource: CelesTrak SupGP

Эпоха: Sep 15, 2026, 03:21 UTC

1 59611C 24080L   26258.14006944 -.00016331  00000+0 -59164-3 0  2588
2 59611  43.0041  44.5713 0001487 266.7363 184.8754 15.27580019    19

Отслеживайте STARLINK-31448 в реальном времени с AllMySat

Download on the App Store